Find Starlink 11558

NORAD ID: 63055 Int'l Des: 2025-035 Owner: SPXS Country: US Constellation: starlink operational
又名: STARLINK-11558 [DTC] celestrak
LEOCIRCULAR

当前视图

正在加载3D地球...

About Starlink 11558

Starlink 11558 (NORAD 63055) is a starlink constellation satellite (v2 mini d2c) launched Feb 21, 2025 by SPXS of US. It operates in LEO, CIRCULAR orbit with a mass of 960.00 kg.

即将过境

Passes for default location (London). Set your location on the main map for personalized predictions.

高度历史

Loading altitude history...

两行轨道根数

1 63055U 25035D 26264.19445291 .00158251 00000-0 12145-2 0 9996
2 63055 42.9993 276.4615 0001012 245.1710 114.9053 15.70820151 91869
Epoch: Sep 21, 2026 • Age: 7 hours

当前状态

高度 356.3 km
远地点 / 近地点 N/A
速度 7.70 km/s
星下点 -3.63°S, 75.08°W
发射日期 Feb 21, 2025
运行时间 1.5 years
类型 internet

技术详情

分类 Payload
质量 960.00 kg
干质量 910.00 kg
长度 0.30 m
跨度 29.00 m
形状 ? Box + pan
制造商 SPXS
平台类型 Starlink V2MD
阶段状态 In Orbit
所有者/国家 SPXS/US

Most Searched